Temp
15 16 16 16 16 16 16 15 14 13 13 14 13 13 14 13 13 13 12 12 12 11 11 10 10 10 9 9 8 8 7 7 7 6 6 6 5 5
15 16 16 16 16 16 15 15 15 13 12 14 14 14 14 13 13 12 12 12 11 11 10 10 9 9 8 8 7 7 6 6 6 6 5 5 5 4
16 16 15 15 15 15 15 14 13 12 12 13 13 13 13 12 12 12 12 10 10 10 9 9 9 8 8 7 7 6 6 6 6 6 6 5 5 4
16 16 15 15 15 15 14 14 13 12 12 12 12 12 12 12 11 10 10 9 9 9 8 8 8 7 7 6 6 6 5 6 6 5 5 4 4 4
16 16 16 16 15 15 13 13 12 12 11 11 12 10 11 11 9 9 9 8 8 8 7 8 7 7 6 5 5 5 6 6 5 4 4 3 3 2
16 16 16 16 16 15 13 12 12 11 11 11 11 8 8 8 8 7 6 7 7 6 6 7 7 6 6 5 5 4 4 4 3 3 2 2 2 1
16 16 16 16 16 15 13 12 11 10 10 10 10 7 6 5 6 6 5 4 5 5 5 5 5 5 5 4 4 4 4 3 3 3 2 1 0 -0
16 16 16 16 16 15 14 13 12 11 10 10 9 7 6 5 4 3 3 2 0 1 2 2 3 5 4 4 3 3 3 3 3 2 2 1 0 -0
16 16 16 16 15 14 13 12 11 9 10 9 7 5 3 2 2 1 1 0 -0 -0 -0 1 3 4 3 3 3 3 3 3 2 2 1 1 0 -0
15 15 15 14 13 12 11 9 5 3 4 6 5 3 2 2 2 1 -0 -1 -1 -1 -1 0 2 2 2 2 2 2 2 2 1 1 1 1 0 -0
14 14 13 12 11 11 9 3 0 -1 -0 1 1 0 -0 -0 -1 -1 -1 -2 -2 -1 1 0 1 1 1 1 1 1 1 1 0 0 -0 -0 -0 -0
8 7 6 6 5 5 4 1 -2 -3 -2 -2 -2 -2 -2 -3 -3 -3 -2 -1 -1 -1 -1 -0 -0 -1 -1 0 0 -0 -0 -0 -1 -1 -1 -1 -1 -1
2 1 0 1 1 1 1 -1 -2 -3 -4 -3 -4 -4 -4 -3 -3 -3 -3 -2 -3 -2 -2 -3 -4 -3 -4 -3 -3 -3 -3 -2 -2 -2 -2 -2 -1 -1
-2 -3 -3 -2 -1 -1 -2 -3 -3 -3 -4 -5 -5 -5 -4 -4 -4 -4 -4 -4 -4 -5 -5 -5 -5 -6 -6 -6 -6 -5 -5 -4 -3 -3 -3 -2 -2 -1
-3 -4 -4 -4 -5 -5 -5 -5 -5 -5 -5 -5 -5 -5 -5 -5 -5 -5 -6 -6 -6 -6 -6 -6 -6 -6 -6 -7 -6 -6 -5 -5 -5 -4 -3 -3 -3 -2
-5 -5 -5 -5 -5 -5 -6 -6 -6 -5 -6 -6 -6 -6 -6 -6 -6 -6 -6 -6 -7 -7 -6 -6 -6 -6 -6 -6 -6 -6 -6 -6 -5 -5 -4 -4 -3 -3
-5 -5 -5 -5 -6 -6 -6 -7 -6 -6 -7 -7 -7 -7 -7 -7 -7 -7 -7 -8 -8 -8 -7 -7 -6 -6 -6 -6 -6 -6 -6 -6 -6 -5 -5 -6 -4 -3
-4 -4 -4 -4 -5 -5 -6 -7 -7 -8 -8 -8 -8 -8 -9 -9 -9 -9 -9 -9 -9 -8 -8 -8 -7 -7 -7 -7 -7 -6 -6 -7 -8 -8 -7 -6 -6 -5
-5 -6 -6 -7 -7 -7 -8 -8 -9 -9 -9 -10 -10 -10 -10 -10 -10 -10 -10 -10 -10 -9 -9 -9 -9 -9 -9 -10 -8 -8 -9 -9 -8 -8 -7 -7 -6 -5
-7 -7 -8 -8 -8 -9 -9 -10 -10 -10 -10 -10 -11 -11 -11 -11 -11 -11 -11 -11 -11 -11 -11 -10 -10 -9 -10 -11 -10 -10 -9 -8 -8 -8 -8 -7 -7 -6
-9 -10 -10 -10 -10 -10 -10 -11 -11 -11 -11 -12 -12 -12 -12 -13 -13 -13 -13 -12 -12 -12 -12 -11 -11 -11 -11 -11 -11 -10 -10 -9 -8 -8 -8 -7 -7 -7
-10 -11 -11 -11 -11 -12 -12 -12 -12 -13 -13 -13 -13 -13 -14 -14 -14 -14 -13 -13 -13 -13 -13 -12 -12 -12 -11 -11 -11 -11 -10 -10 -9 -8 -8 -7 -7 -7
-12 -12 -12 -13 -13 -13 -14 -14 -14 -14 -14 -14 -15 -15 -15 -15 -15 -14 -14 -14 -14 -14 -13 -13 -13 -13 -12 -12 -12 -11 -11 -10 -9 -9 -8 -7 -7 -5
Height
814 815 817 819 819 819 821 822 822 823 820 818 817 814 814 813 815 817 820 820 823 823 825 829 833 835 836 838 839 840 840 840 841 841 841 841 841 841
806 808 809 810 812 812 812 814 814 813 812 811 810 810 807 807 807 808 811 815 816 818 819 823 827 829 830 831 833 834 834 834 835 835 834 833 833 833
797 799 801 801 802 803 803 804 806 807 803 801 801 802 800 800 797 798 801 806 808 811 814 815 818 821 821 823 825 825 826 827 827 826 826 826 825 824
787 790 790 793 793 794 794 794 795 796 795 791 791 792 791 793 793 793 795 798 800 803 806 810 811 813 815 818 819 820 820 819 819 819 818 818 817 816
777 779 781 783 784 783 783 784 785 786 786 785 781 781 782 783 784 786 787 791 794 796 801 803 806 806 808 811 813 813 812 812 813 813 812 811 811 810
766 768 769 771 771 772 773 774 776 777 778 777 775 773 770 771 776 775 779 782 788 789 794 797 800 802 803 805 806 806 807 806 807 807 806 805 805 804
753 755 756 757 759 760 760 764 766 767 768 768 767 765 762 762 764 768 770 775 781 787 795 790 794 798 799 800 800 800 801 800 801 801 800 799 798 797
742 743 744 746 747 748 749 752 755 751 752 753 752 753 753 752 757 762 766 773 778 780 787 793 790 794 795 796 796 796 796 794 794 794 793 792 791 790
734 735 735 736 737 739 742 744 745 741 737 739 744 745 748 751 758 760 767 766 770 781 789 784 793 790 790 791 791 790 790 789 788 788 787 786 784 783
724 726 727 727 729 732 733 734 736 737 735 733 738 741 744 749 754 761 766 772 778 777 783 783 783 783 784 785 786 784 783 784 782 781 780 779 777 776
713 714 716 718 720 722 724 727 733 736 739 740 742 747 752 751 759 759 767 777 779 777 777 779 780 780 778 777 780 778 778 777 775 773 772 773 771 769
706 707 709 711 714 717 721 726 732 739 743 743 746 750 754 761 758 766 768 768 776 777 776 778 778 779 772 772 773 772 772 771 769 768 766 764 764 762
702 705 708 711 714 717 721 726 731 741 742 746 751 754 757 763 762 765 770 770 770 774 775 775 776 776 775 771 771 771 769 766 765 762 760 757 756 754
700 705 711 714 718 722 726 732 736 740 743 751 748 756 759 764 765 765 768 770 770 774 774 775 775 773 773 772 767 764 764 763 761 757 754 750 749 748
706 708 711 718 727 734 735 738 742 746 748 752 754 759 760 764 766 766 766 767 769 769 770 771 770 768 768 767 765 762 758 755 754 750 748 746 743 741
712 712 721 721 727 737 744 745 746 750 753 756 759 761 762 764 765 766 766 766 765 765 765 767 766 765 762 761 760 755 755 753 749 746 742 737 735 734
722 727 733 737 730 738 746 749 751 752 755 759 762 763 763 764 765 766 766 765 765 765 765 763 763 761 758 757 753 752 749 747 744 740 737 732 729 728
732 734 737 741 747 744 746 751 755 758 760 762 763 763 763 765 766 767 766 766 766 765 763 762 760 757 754 751 752 747 745 741 739 736 733 729 722 720
735 740 745 745 751 753 757 759 759 762 764 764 763 764 766 766 767 767 768 767 767 765 764 761 758 756 753 748 747 745 740 737 734 731 729 725 719 712
747 745 751 755 754 758 762 765 767 769 766 767 767 767 767 767 768 768 768 766 765 765 764 762 757 752 752 750 742 739 740 734 731 726 723 719 716 711
754 755 757 759 760 763 767 769 769 767 767 769 770 770 770 769 769 768 767 765 764 763 762 762 756 754 749 744 739 734 732 730 727 721 718 715 710 706
761 763 764 763 762 764 767 768 771 771 769 771 771 769 769 770 769 767 766 766 764 762 762 758 754 751 748 744 738 732 727 723 719 715 712 710 706 700
765 767 769 769 768 766 766 769 773 771 771 772 771 769 771 770 768 766 765 764 763 762 761 756 751 749 746 742 736 730 726 718 712 706 701 699 694 690
Wind_Speed
36 32 36 35 32 29 28 28 19 7 9 22 21 26 28 27 34 37 34 39 37 36 35 33 31 29 27 26 25 25 25 25 24 24 25 25 25 23
35 37 38 34 35 34 32 33 31 22 11 23 25 26 25 32 34 32 36 38 35 31 31 30 29 28 26 26 26 25 25 25 25 26 26 27 27 25
35 36 35 33 34 34 34 32 30 28 20 25 30 32 33 32 32 37 34 34 34 30 29 29 29 27 26 27 27 27 26 26 27 29 29 28 27 26
39 38 37 36 35 34 32 34 30 32 30 27 26 33 34 33 37 32 30 31 32 30 30 29 27 24 23 24 25 27 28 28 29 28 26 26 27 27
40 39 39 37 37 35 34 32 34 34 32 31 29 27 32 37 36 35 40 33 29 27 24 25 25 23 21 23 28 30 29 27 25 24 25 25 25 24
43 43 42 41 39 37 34 35 33 30 29 30 30 24 27 27 35 33 29 34 34 20 22 19 20 20 19 21 23 22 19 19 19 19 21 21 24 28
44 44 44 45 44 42 38 34 30 30 32 29 27 19 21 19 30 27 24 20 20 16 17 16 13 15 17 18 16 17 18 18 20 22 23 24 25 27
40 41 43 43 44 45 43 44 43 38 36 31 32 22 23 16 20 20 13 7 3 12 8 16 18 19 16 17 17 21 21 22 25 26 25 26 27 27
38 37 38 40 42 41 43 44 47 44 43 33 22 16 14 15 16 14 11 16 10 8 7 10 15 16 18 19 18 19 18 21 24 26 26 27 25 24
40 39 37 32 33 35 35 29 18 10 10 18 19 15 16 16 19 17 13 9 4 7 11 7 18 21 19 19 18 21 24 22 26 28 27 24 24 26
34 34 33 31 29 32 28 17 18 19 18 18 19 18 16 17 14 13 8 3 2 5 5 12 16 18 19 21 20 18 23 19 16 17 17 22 27 28
18 15 10 10 11 14 16 23 25 21 20 21 21 18 16 11 8 7 9 9 2 3 2 5 5 8 6 11 15 14 18 24 24 27 31 30 28 27
12 12 12 12 16 18 21 25 27 22 22 21 19 15 10 5 5 2 2 4 3 6 7 11 7 13 11 12 21 22 21 26 26 24 24 28 25 25
25 27 26 23 22 23 26 28 26 22 21 17 18 12 10 7 6 4 4 4 4 8 12 14 12 11 13 18 17 18 21 25 24 28 31 31 26 23
27 33 36 35 33 29 27 24 21 19 18 16 15 10 8 5 2 4 5 5 8 11 12 13 16 18 19 20 22 22 25 25 27 27 23 27 27 24
29 31 29 32 30 24 20 20 20 17 16 16 12 9 6 4 4 5 5 6 8 10 12 14 17 19 22 22 22 23 22 18 28 30 30 31 31 28
30 27 23 20 25 22 20 20 18 17 17 12 10 9 8 7 7 8 9 10 11 14 16 15 16 18 21 22 21 23 25 28 28 28 17 21 26 23
21 19 19 18 16 18 18 18 17 14 12 10 10 10 11 11 11 12 12 12 12 13 15 16 18 18 19 19 18 24 22 16 18 22 26 22 27 31
25 23 21 21 20 19 17 17 16 13 11 13 12 11 10 10 11 11 13 13 13 14 15 16 17 17 8 9 17 14 24 24 25 26 22 20 23 31
24 23 21 20 20 19 17 15 13 11 11 11 9 8 9 10 12 12 13 15 15 16 18 19 18 16 13 12 21 25 19 27 27 27 24 23 28 26
21 22 21 20 18 15 12 10 10 10 10 10 11 11 12 11 12 13 14 15 16 15 15 17 19 24 25 26 20 22 24 24 25 27 22 22 23 24
18 17 16 14 14 14 13 11 12 12 12 11 10 10 10 10 12 12 13 14 14 15 16 19 21 21 21 19 20 23 25 28 31 29 26 26 23 6
16 16 15 13 13 12 11 10 9 9 9 8 10 10 11 12 12 13 13 14 15 15 17 19 18 19 20 21 23 24 26 27 26 26 28 24 22 21
Wind_Direction
241 236 239 247 244 243 243 246 232 245 250 258 239 252 246 239 243 249 242 239 239 240 236 239 240 240 244 250 255 258 259 261 265 267 271 275 279 282
238 241 244 244 249 243 245 247 239 229 256 260 262 251 240 240 240 236 236 235 240 240 234 233 237 242 246 252 256 260 262 264 268 272 274 277 280 284
237 240 243 243 241 242 242 240 235 235 246 255 256 254 245 237 222 228 227 229 236 231 230 232 236 242 248 253 254 257 260 266 270 273 277 279 281 284
242 243 243 241 242 241 236 231 234 240 239 253 251 239 241 243 227 225 225 226 224 227 231 242 239 240 249 256 259 261 264 269 272 274 274 277 281 284
239 239 243 246 243 238 229 233 236 239 242 245 250 239 239 238 223 225 216 215 227 229 233 231 231 239 246 258 265 267 267 268 269 275 281 278 280 287
240 242 244 244 243 238 231 234 237 241 243 244 249 229 213 215 212 204 212 222 222 211 226 233 241 242 251 264 271 271 269 273 278 278 279 283 288 295
240 243 245 246 246 244 230 234 238 242 246 247 244 217 207 204 208 214 213 209 218 224 238 206 221 245 254 265 269 275 282 282 275 280 284 289 294 295
242 244 245 246 246 244 242 248 248 243 242 236 235 229 235 217 196 191 169 146 143 195 236 274 259 247 242 254 265 276 279 279 283 286 289 291 291 294
244 248 251 250 249 245 250 251 252 254 242 231 221 209 179 174 159 144 147 152 154 181 278 259 255 260 259 270 270 276 275 280 284 285 286 288 289 292
247 251 254 251 243 237 237 236 230 226 228 220 207 171 170 160 172 167 160 162 202 210 239 245 266 274 275 276 270 276 280 284 288 286 286 284 288 285
239 241 244 246 245 242 228 176 132 109 113 126 128 126 128 140 144 133 137 158 214 220 250 267 277 279 278 280 273 269 285 277 282 289 289 288 289 280
222 232 244 233 208 202 192 158 124 126 121 118 112 112 107 96 90 123 154 161 191 302 242 306 293 323 312 266 267 268 279 295 292 292 292 292 286 277
151 122 127 150 154 162 162 152 136 126 113 110 101 103 104 111 122 116 208 204 204 258 278 334 310 295 294 301 293 296 287 288 292 293 290 293 295 277
123 115 113 124 130 130 125 122 120 116 111 104 106 99 106 108 98 129 172 207 241 277 283 283 289 292 289 291 290 296 292 292 291 290 292 295 291 284
117 112 109 106 101 97 102 104 102 101 102 105 101 98 89 76 8 315 315 310 296 293 294 290 282 283 275 270 280 289 297 296 291 286 294 299 297 296
104 104 106 107 101 99 92 87 91 92 91 88 87 86 85 59 38 7 335 316 312 309 300 288 283 280 276 273 277 284 288 287 291 291 289 292 291 280
95 92 90 89 97 94 88 85 83 87 81 74 68 58 48 31 16 1 353 341 328 315 306 305 297 290 286 285 280 280 285 284 284 289 301 315 301 297
95 92 92 86 82 92 96 90 83 76 65 62 61 50 37 22 8 348 338 327 314 307 305 309 311 312 306 295 288 292 293 315 326 322 318 305 300 300
78 75 71 74 73 74 72 72 75 66 71 62 48 32 16 360 347 338 329 326 325 324 320 321 322 317 303 293 306 304 323 314 309 304 301 298 292 298
70 72 71 69 72 70 65 61 54 50 39 24 21 20 16 9 355 342 338 338 336 328 318 309 303 310 328 309 303 304 301 296 294 291 293 298 295 300
72 72 76 73 73 71 66 59 50 44 38 33 27 17 4 355 346 345 340 333 328 320 317 316 321 321 320 318 312 310 310 305 300 300 295 298 299 302
72 73 71 71 67 62 53 50 35 34 30 21 12 7 0 350 346 339 331 326 324 322 319 320 320 317 314 310 309 310 310 310 310 306 296 285 275 257
60 59 67 62 62 58 49 43 32 25 19 10 8 5 354 347 337 336 333 332 331 328 318 316 324 326 319 315 312 309 309 309 307 304 297 298 286 276